Wind_Speed
7 7 8 8 9 9 9 9 10 10 10 11 11 10 10 11 12 12 12 13 14 14 14 14 14 14 15 15 16 16 16 16 17 17 17 17 18 18 18 18 18 18 18 18
7 7 7 8 9 9 10 10 10 11 11 12 12 11 11 12 12 13 13 13 14 14 14 15 15 15 16 17 17 17 17 18 18 18 18 18 19 18 18 18 19 19 19 19
8 8 8 9 9 9 10 10 11 11 12 12 12 12 13 13 13 13 13 13 14 15 15 16 16 16 17 18 18 19 19 19 20 20 19 19 19 19 19 20 20 20 20 20
9 10 10 9 10 10 11 11 12 12 13 13 13 13 14 14 14 14 15 15 15 16 16 16 17 17 18 19 19 20 20 20 20 20 20 20 20 20 21 21 21 21 22 22
11 11 10 11 11 11 11 11 12 12 13 14 14 14 15 15 15 16 16 16 17 17 18 18 18 18 19 19 20 20 20 20 21 21 21 21 21 22 22 22 23 23 24 24
13 13 13 12 12 12 13 13 12 13 13 14 14 15 15 16 16 17 17 17 18 19 19 20 19 20 20 20 20 21 21 21 21 22 22 22 23 23 24 24 25 25 25 26
16 15 14 13 13 13 13 13 14 14 15 15 16 16 16 17 17 18 18 19 19 20 20 20 21 21 21 21 21 22 22 22 23 23 23 24 24 25 25 25 26 26 27 27
18 18 16 15 15 15 15 15 15 15 16 16 17 18 18 18 19 19 20 20 20 20 20 21 22 22 22 23 23 23 24 24 24 24 25 25 26 26 27 27 27 28 29 29
20 20 19 19 19 18 18 18 17 17 18 18 18 18 19 20 20 20 20 20 21 22 22 22 23 23 24 24 24 25 25 25 26 26 26 26 27 28 28 29 29 30 31 32
23 22 21 21 21 21 20 20 20 20 20 20 20 20 20 21 21 21 21 22 22 23 23 24 24 25 25 26 26 26 26 27 27 28 28 28 29 30 30 31 31 32 33 34
24 23 23 23 23 23 22 22 22 22 21 21 22 22 22 23 23 23 23 24 24 25 25 26 26 27 27 27 27 28 28 28 29 29 30 30 31 32 32 32 33 34 34 35
25 25 25 25 25 25 24 23 23 23 23 23 23 23 23 24 25 26 26 27 27 27 27 28 28 28 28 29 29 29 30 30 31 31 32 32 32 33 34 34 34 35 35 36
26 26 26 26 25 25 26 25 25 25 25 24 24 24 25 26 27 27 28 28 29 29 29 29 30 30 30 30 31 31 32 32 33 33 33 33 34 34 35 35 36 36 37 38
28 28 28 27 27 27 27 26 26 26 26 26 26 26 26 27 27 28 28 29 29 30 30 30 31 31 31 31 32 32 33 33 33 34 34 34 35 36 36 37 38 38 39 41
29 30 29 28 28 28 28 28 27 27 28 28 28 28 28 28 28 29 29 30 31 31 32 32 32 32 32 32 33 33 34 34 34 35 35 36 37 38 38 39 40 40 41 42
29 30 29 29 28 29 29 29 29 29 29 29 30 30 29 29 30 30 31 31 32 32 33 33 33 34 33 33 34 34 35 35 36 36 37 38 39 40 40 41 42 42 43 44
30 30 30 29 29 30 30 30 30 29 29 30 30 31 31 31 31 32 32 33 32 32 33 33 34 34 34 34 35 35 36 37 38 38 39 39 40 41 42 42 43 44 45 46
30 30 30 30 30 31 31 31 31 30 30 30 31 32 32 32 32 32 32 33 33 33 33 33 33 33 34 35 36 37 38 38 39 39 40 40 41 42 43 44 45 45 46 46
31 31 31 31 31 31 31 32 32 32 32 32 32 32 32 32 32 32 32 32 32 32 32 33 33 34 34 35 36 36 37 38 39 40 41 42 43 43 44 44 45 46 46 47
31 32 32 32 31 31 31 31 32 32 32 32 32 32 32 32 32 32 32 32 33 33 33 33 33 34 35 36 37 38 38 39 39 40 41 42 43 43 44 44 45 46 47 48
31 32 32 33 33 32 32 32 32 32 32 32 32 32 32 32 33 33 33 33 33 33 33 33 34 35 36 37 38 38 39 39 39 40 41 42 42 43 44 44 45 45 46 47
32 33 33 33 34 33 33 33 33 32 32 32 33 33 33 33 33 33 33 33 33 33 34 34 35 36 37 37 38 38 39 39 40 40 41 42 43 43 44 44 45 45 46 46
32 33 33 33 33 33 33 33 34 34 33 33 33 33 33 34 34 34 34 34 34 35 35 36 36 37 38 38 39 39 39 40 40 41 41 42 42 43 43 44 44 45 45 45
33 33 33 33 33 33 33 33 34 34 34 34 34 34 35 35 35 35 35 35 35 36 36 37 37 38 39 39 39 40 40 41 41 42 42 43 44 44 44 44 44 44 45 46
33 33 33 33 33 33 33 34 34 34 34 34 34 34 35 35 35 36 36 36 37 37 37 38 38 38 39 39 40 40 41 42 42 43 43 44 44 44 44 44 44 44 45 46
33 33 33 33 33 33 33 33 32 33 33 33 34 35 35 36 36 37 37 37 37 38 38 38 39 39 40 40 41 41 42 43 43 43 44 44 43 43 44 44 44 44 44 45
34 34 35 34 34 34 34 34 34 34 34 34 35 36 36 36 37 37 37 37 37 38 39 39 40 40 40 41 41 42 42 43 43 43 43 43 43 43 43 44 44 44 44 45
Wind_Direction
234 235 234 232 232 232 233 231 227 228 231 231 234 235 236 237 238 238 240 242 246 251 254 255 257 259 261 263 265 267 267 268 269 270 271 271 273 276 276 277 279 282 283 284
246 246 244 241 242 244 243 240 237 235 234 239 241 242 243 244 244 245 246 247 250 253 254 256 258 261 264 267 267 269 270 270 271 272 272 272 274 276 277 279 280 282 283 284
250 255 255 250 250 252 248 245 245 243 243 246 247 249 248 247 248 250 251 253 254 256 257 259 261 262 265 269 270 270 271 271 272 273 272 273 275 276 277 279 280 282 283 284
246 248 248 250 248 249 251 250 250 249 248 250 252 253 252 251 252 253 254 254 256 256 258 262 264 265 268 269 269 270 272 272 271 271 271 273 275 276 278 280 281 282 283 284
249 250 251 250 252 251 253 253 253 247 247 249 252 253 255 255 256 256 256 257 260 261 261 264 267 269 270 271 270 271 272 273 273 273 273 274 276 277 279 280 280 282 283 285
254 255 257 255 255 255 255 255 252 251 250 250 252 255 255 257 259 259 260 261 262 263 263 263 267 270 271 271 272 273 273 273 274 275 275 275 276 278 279 280 281 282 284 285
255 259 260 258 257 259 257 255 252 253 255 256 258 259 259 259 261 261 261 262 264 266 265 264 266 269 271 272 272 273 274 274 274 275 276 277 278 279 280 282 282 283 285 286
254 258 259 259 260 261 261 261 261 260 262 263 264 263 262 262 263 264 265 265 266 266 265 265 266 268 270 271 272 273 274 275 275 276 277 278 278 280 281 282 283 284 285 286
255 257 259 260 262 264 265 265 265 265 267 268 268 268 267 266 267 268 269 270 269 267 266 267 268 269 271 272 273 274 275 276 277 278 279 279 280 281 282 283 284 285 286 286
255 257 259 261 262 263 265 266 266 266 267 267 267 267 267 268 269 270 271 272 273 273 271 271 271 271 272 273 274 274 275 276 277 279 280 280 280 281 282 283 285 286 286 287
255 256 259 261 262 263 265 266 266 266 267 267 267 267 266 267 269 270 271 272 274 274 274 274 273 273 272 273 273 273 274 276 277 278 279 280 280 282 283 284 285 286 287 287
254 255 257 260 261 263 265 266 268 269 269 270 271 269 267 267 269 271 272 273 274 274 275 275 274 274 273 273 273 274 275 276 277 278 278 279 280 282 283 284 285 286 287 287
255 255 257 259 260 262 265 266 267 269 269 269 269 270 270 271 272 273 273 273 274 275 275 275 275 275 274 273 273 274 275 276 277 278 279 280 281 282 283 284 285 286 287 288
255 257 258 260 262 263 265 266 266 266 267 268 269 271 272 273 274 275 275 275 276 276 276 276 276 276 275 274 275 275 276 277 277 278 279 280 281 282 284 284 285 286 287 288
256 258 259 260 261 263 264 264 265 267 268 268 270 270 271 273 275 277 278 278 278 277 277 277 276 276 276 276 276 277 277 278 278 279 279 280 281 282 284 285 286 287 288 289
257 259 260 261 262 262 263 264 265 266 267 268 269 270 271 273 275 276 277 278 279 279 278 277 276 276 276 276 276 277 278 279 279 280 280 281 282 284 285 286 287 289 290 290
257 259 261 261 261 262 263 265 265 266 267 269 270 270 272 274 276 278 279 280 280 279 279 277 276 276 277 277 277 278 279 280 280 281 282 282 283 285 286 287 289 290 290 291
257 259 260 260 261 262 263 264 264 265 267 270 271 272 273 274 276 278 280 281 280 280 279 278 277 277 277 278 279 280 281 281 281 281 282 283 285 286 287 288 289 290 290 291
258 258 258 259 261 262 263 264 265 266 268 270 271 271 272 274 275 277 279 280 280 280 280 278 278 278 279 281 282 283 283 283 283 283 283 284 286 287 288 289 290 290 291 291
258 259 259 259 260 261 263 264 266 268 269 269 270 270 272 273 275 276 277 279 280 280 280 280 280 281 282 283 284 285 285 285 285 286 286 286 287 288 289 289 290 291 291 293
258 258 259 260 260 261 263 265 267 269 269 269 269 271 272 273 274 276 277 278 279 280 280 281 282 283 283 284 285 286 286 286 287 288 288 288 288 289 290 291 292 292 293 294
258 259 259 260 261 262 264 266 268 268 268 269 270 271 273 274 275 277 278 279 280 281 281 281 282 284 285 286 287 287 287 287 288 288 288 289 290 290 291 292 292 292 293 295
257 257 259 260 261 263 265 266 268 268 268 269 270 272 273 274 276 278 279 280 281 281 282 283 284 285 286 287 288 289 289 288 289 290 290 291 291 292 293 293 293 294 295 296
258 258 259 260 262 263 265 266 267 268 268 269 270 272 273 274 276 277 279 280 280 282 283 284 285 286 287 288 289 289 289 290 290 291 292 293 293 292 293 294 293 294 295 296
258 259 260 261 263 264 265 266 266 267 268 269 270 272 273 275 277 278 279 280 281 282 283 284 285 286 288 289 289 290 291 292 291 291 292 293 293 293 293 294 294 295 296 298
259 259 260 262 263 264 265 265 266 267 268 270 271 273 275 276 277 279 280 280 281 282 283 285 286 287 288 289 290 292 293 293 294 293 293 293 294 294 293 295 296 297 297 299
259 260 261 261 262 263 264 265 266 267 268 270 271 273 275 277 278 279 281 282 283 284 285 286 286 287 288 289 290 291 292 293 293 294 294 294 294 294 294 295 297 298 299 299
Height
5845 5845 5846 5847 5848 5849 5850 5851 5853 5854 5854 5855 5856 5857 5859 5860 5861 5862 5863 5864 5865 5866 5867 5868 5868 5869 5870 5870 5870 5870 5870 5870 5870 5870 5870 5869 5869 5868 5867 5867 5866 5865 5864 5863
5843 5844 5844 5845 5846 5847 5848 5849 5850 5851 5852 5853 5853 5855 5856 5857 5858 5859 5860 5861 5862 5863 5863 5864 5864 5865 5865 5866 5866 5866 5866 5866 5865 5865 5865 5864 5864 5863 5863 5862 5861 5860 5859 5858
5841 5842 5842 5844 5844 5845 5845 5846 5847 5848 5850 5850 5851 5852 5853 5854 5855 5856 5857 5858 5858 5859 5859 5860 5860 5861 5861 5861 5861 5861 5861 5861 5860 5860 5859 5859 5859 5858 5857 5857 5856 5854 5853 5852
5839 5840 5841 5843 5842 5842 5843 5843 5844 5845 5846 5847 5848 5849 5849 5850 5851 5852 5853 5854 5854 5854 5855 5855 5855 5856 5856 5856 5856 5856 5855 5855 5855 5854 5854 5854 5853 5852 5851 5851 5850 5849 5848 5846
5836 5837 5838 5839 5839 5839 5840 5840 5840 5841 5842 5843 5844 5845 5845 5846 5847 5848 5849 5849 5849 5850 5850 5850 5850 5850 5850 5850 5850 5850 5850 5850 5849 5849 5848 5848 5847 5846 5845 5844 5843 5842 5841 5840
5832 5833 5834 5836 5835 5835 5837 5837 5837 5838 5838 5839 5840 5841 5842 5842 5843 5843 5844 5844 5844 5844 5845 5845 5845 5845 5845 5845 5845 5844 5844 5844 5843 5843 5842 5842 5841 5840 5839 5838 5837 5836 5834 5833
5828 5829 5830 5831 5831 5832 5834 5834 5834 5834 5834 5835 5835 5836 5837 5837 5837 5838 5838 5838 5839 5839 5839 5839 5839 5839 5839 5839 5839 5838 5838 5837 5837 5836 5836 5835 5834 5833 5832 5831 5830 5829 5827 5825
5823 5825 5828 5826 5826 5828 5828 5828 5829 5829 5830 5830 5830 5831 5831 5831 5832 5832 5832 5833 5833 5833 5833 5833 5833 5833 5833 5833 5832 5832 5831 5831 5830 5830 5829 5828 5827 5826 5825 5823 5822 5821 5819 5817
5819 5821 5821 5821 5821 5822 5823 5823 5824 5824 5825 5825 5825 5825 5825 5826 5826 5826 5826 5826 5827 5827 5827 5827 5826 5826 5826 5826 5825 5825 5824 5824 5823 5822 5821 5820 5819 5818 5817 5815 5814 5812 5810 5808
5812 5813 5814 5815 5815 5816 5817 5817 5818 5818 5819 5819 5819 5819 5820 5820 5820 5820 5820 5820 5820 5820 5819 5819 5819 5819 5819 5818 5818 5817 5816 5816 5815 5814 5813 5812 5811 5809 5808 5806 5805 5803 5801 5799
5805 5807 5807 5808 5809 5809 5810 5811 5811 5812 5812 5812 5813 5813 5813 5813 5813 5813 5813 5813 5813 5812 5812 5812 5811 5811 5811 5810 5810 5809 5808 5807 5807 5806 5805 5803 5802 5800 5799 5797 5795 5793 5791 5788
5798 5799 5800 5801 5802 5802 5803 5804 5804 5805 5805 5806 5806 5806 5806 5806 5806 5806 5806 5805 5805 5804 5804 5803 5803 5802 5802 5801 5801 5800 5799 5799 5798 5797 5795 5794 5792 5791 5789 5787 5785 5782 5780 5778
5790 5791 5792 5793 5794 5795 5795 5796 5797 5797 5798 5798 5798 5798 5799 5799 5798 5798 5797 5797 5797 5796 5795 5795 5794 5793 5793 5792 5791 5791 5790 5789 5788 5787 5785 5784 5782 5780 5779 5777 5774 5772 5769 5766
5781 5782 5784 5785 5786 5787 5787 5788 5789 5789 5790 5790 5790 5791 5790 5790 5790 5789 5789 5788 5788 5787 5786 5785 5785 5784 5783 5782 5781 5780 5779 5778 5777 5776 5775 5773 5772 5770 5767 5765 5763 5760 5758 5755
5773 5774 5775 5777 5778 5778 5779 5780 5781 5781 5781 5782 5782 5782 5782 5782 5781 5781 5780 5779 5778 5777 5776 5775 5775 5774 5773 5772 5771 5770 5769 5768 5767 5765 5764 5762 5760 5758 5756 5753 5751 5748 5745 5742
5764 5765 5766 5768 5769 5770 5770 5771 5772 5772 5772 5772 5772 5773 5773 5772 5772 5771 5770 5769 5768 5767 5766 5765 5764 5763 5762 5761 5760 5759 5758 5757 5755 5754 5752 5750 5748 5746 5744 5741 5738 5735 5732 5729
5754 5755 5757 5758 5760 5760 5761 5761 5762 5762 5763 5763 5763 5763 5763 5763 5762 5761 5760 5759 5758 5757 5755 5754 5753 5752 5751 5750 5749 5748 5746 5745 5743 5742 5740 5738 5736 5733 5731 5728 5725 5722 5719 5715
5744 5746 5747 5749 5750 5750 5751 5752 5752 5752 5753 5753 5753 5753 5753 5752 5752 5751 5750 5749 5748 5746 5745 5744 5743 5742 5741 5739 5738 5736 5735 5733 5731 5729 5727 5725 5723 5720 5717 5714 5711 5708 5704 5701
5734 5735 5737 5738 5739 5740 5741 5741 5742 5742 5743 5743 5743 5743 5743 5742 5741 5741 5740 5739 5737 5736 5734 5733 5732 5731 5730 5728 5726 5725 5723 5721 5719 5716 5714 5712 5709 5707 5704 5700 5697 5694 5690 5686
5724 5725 5726 5728 5729 5730 5730 5731 5732 5732 5732 5733 5733 5733 5732 5732 5731 5730 5729 5728 5727 5725 5724 5723 5721 5720 5718 5717 5715 5713 5711 5708 5706 5704 5701 5699 5696 5693 5690 5686 5683 5679 5675 5671
5714 5715 5716 5717 5718 5719 5720 5721 5721 5722 5722 5722 5722 5722 5722 5721 5721 5720 5719 5718 5716 5715 5713 5712 5711 5709 5707 5705 5703 5701 5698 5696 5693 5691 5688 5685 5682 5679 5676 5672 5669 5665 5661 5657
5703 5704 5705 5706 5708 5709 5709 5710 5710 5711 5711 5711 5712 5712 5711 5711 5710 5709 5708 5707 5706 5704 5703 5701 5700 5698 5696 5693 5691 5689 5686 5683 5681 5678 5675 5672 5669 5666 5662 5659 5655 5651 5647 5643
5692 5693 5695 5696 5697 5698 5699 5699 5700 5700 5700 5700 5701 5700 5700 5700 5699 5698 5698 5697 5695 5693 5692 5690 5688 5686 5684 5681 5679 5677 5674 5671 5668 5665 5662 5659 5655 5652 5648 5645 5641 5637 5633 5629
5681 5682 5684 5685 5686 5687 5688 5688 5688 5689 5689 5689 5689 5689 5689 5688 5688 5687 5686 5685 5683 5682 5680 5678 5676 5674 5672 5669 5667 5664 5661 5658 5655 5652 5649 5645 5642 5638 5635 5631 5627 5623 5619 5615
5670 5672 5673 5674 5675 5676 5676 5677 5677 5678 5678 5678 5678 5677 5677 5676 5676 5675 5674 5672 5671 5670 5668 5666 5664 5662 5659 5656 5654 5651 5648 5645 5642 5639 5635 5632 5628 5625 5621 5617 5613 5609 5605 5601
5659 5660 5662 5663 5664 5664 5665 5666 5666 5666 5667 5667 5666 5666 5665 5665 5664 5663 5662 5660 5659 5657 5655 5653 5651 5649 5646 5644 5641 5638 5635 5632 5629 5625 5622 5619 5615 5611 5608 5604 5600 5595 5591 5587
5647 5649 5650 5651 5652 5653 5654 5654 5655 5655 5655 5655 5655 5655 5654 5653 5652 5651 5649 5648 5646 5644 5642 5640 5638 5635 5633 5630 5628 5625 5622 5619 5615 5612 5609 5605 5602 5598 5594 5590 5586 5582 5577 5573